Tracking 22124 objects as of 23-Jan-2021
HD Live streaming from Space Station
objects crossing your sky now

FLOCK 4V 14

Track FLOCK 4V 14 now!
10-day predictions
FLOCK 4V 14 is classified as:


NORAD ID: 46286
Int'l Code: 2020-061Q
Perigee: 540.5 km
Apogee: 544.9 km
Inclination: 97.5 °
Period: 95.4 minutes
Semi major axis: 6913 km
RCS: Unknown
Launch date: September 3, 2020
Source: United States (US)
Launch site: FRENCH GUIANA (FRGUI)
aabbcc
Your satellite tracking list
Your tracking list is empty




NASA's NSSDC Master Catalog

Two Line Element Set (TLE):
1 46286U 20061Q   21022.75621976  .00001376  00000-0  88041-4 0  9997
2 46286  97.5047  99.1261 0003178 193.3838 166.7308 15.10213066 21359
Source of the keplerian elements: AFSPC